User: anonymous   Login
Location: Brno
(49.2000°N, 16.6330°E)
Time: 04:18:45
(UTC+02:00)
Language:

Meteor 1-4 Rocket - Orbit

View from above orbital plane
View from above orbital plane
View from above satellite
View from above satellite

Ground track
Ground track

The orbit data is extracted from the following two-line orbital elements,

1 04394U 70037B   16147.86514184  .00002054  00000-0  74686-4 0  9999
2 04394  81.2424 108.0208 0042245   4.0538 356.1030 15.26902601505795
Epoch (UTC): 26 May 2016 20:45:48
Eccentricity: 0.0042245
inclination: 81.2424°
perigee height: 456 km
apogee height: 514 km
right ascension of ascending node: 108.0208°
argument of perigee: 4.0538°
revolutions per day: 15.26902601
mean anomaly at epoch: 356.1030°
orbit number at epoch: 50579

The dashed part of the orbit path shows where the satellite is in the earth's shadow,  

DLR